Powrót do katalogu

STARLINK-38314

AktywnyŁącznośćSSO
NORAD 100388·PAYLOAD·🇺🇸 United States

Wystrzelony Aug 19, 2026 z Vandenberg Space Force Base

Loading…

Następne Przeloty (najbliższe 24 godziny)

TLE

ŚwieżeSource: Space-Track

Epoka: Sep 14, 2026, 22:15 UTC

1 A0388U 26190T   26257.92732413 -.00543889  00000-0 -56389-2 0  9992
2 A0388  97.2827 111.9362 0001843 346.8661  13.2551 15.66260514  5490

Śledź STARLINK-38314 w czasie rzeczywistym z AllMySat

Download on the App Store